Theta_e
330 330 332 331 332 329 329 329 330 330 330 328 329 328 327 327 327 328 329 329 329 329 329 329 329 328 328 328 328 327 327 328 329 329 330 329 330 325 320 321 323 324 326 328 330 331 331 331 332 332 333 333 332 333 333 333 332 332 331 331 330 330 331 330 330 329 329 328 328 326 325 325 328 329 329 329 329 329 329 329 329 329 329 330 330
330 331 331 332 332 331 330 331 329 331 330 330 328 329 329 328 328 329 330 330 329 330 329 329 328 328 328 328 327 326 328 328 328 328 330 329 329 328 317 320 322 323 324 326 327 329 330 330 331 331 332 332 332 331 331 331 332 329 329 329 329 330 329 327 326 326 324 324 325 326 326 325 325 327 328 328 328 328 329 328 328 328 329 329 329
331 332 332 332 332 331 330 330 330 330 331 331 331 331 330 330 329 329 330 330 329 329 328 328 327 327 327 328 327 327 327 328 328 329 329 329 328 328 329 317 320 321 323 324 325 326 327 328 328 329 330 330 331 331 331 330 328 328 327 328 328 325 324 324 324 324 324 324 323 322 323 323 323 323 323 322 323 323 323 323 325 325 326 327 327
333 333 333 332 332 331 332 331 331 331 331 330 331 331 330 331 331 331 331 330 328 328 329 327 326 326 327 327 327 327 328 328 328 328 328 328 327 327 327 326 316 320 320 322 323 323 324 325 325 326 327 328 329 329 329 327 328 328 327 325 324 324 323 323 323 323 322 322 322 322 322 322 322 322 322 322 321 322 322 322 323 323 323 323 323
333 334 333 332 332 331 331 331 331 331 331 331 331 332 331 330 330 331 329 329 328 327 329 327 325 326 326 327 327 327 328 328 328 327 326 326 326 326 326 326 326 315 317 319 320 321 322 323 322 323 325 326 327 326 326 327 327 325 324 324 323 323 324 322 321 321 321 322 322 321 320 320 319 319 318 319 319 319 319 319 320 320 321 321 321
334 334 333 332 332 331 331 330 331 332 332 331 330 330 329 329 329 328 325 326 326 326 326 325 325 326 326 327 327 327 328 328 327 327 327 326 326 326 325 325 324 323 323 316 318 318 319 320 319 322 323 323 323 323 325 326 325 323 322 323 323 323 323 322 322 321 321 320 318 318 318 318 318 319 319 319 319 319 320 320 320 320 320 320 320
335 334 333 333 331 331 331 331 331 332 331 331 330 329 329 328 327 326 326 325 326 326 326 325 324 324 325 326 326 327 327 327 329 328 326 327 325 325 325 323 322 321 322 320 312 314 317 318 317 320 321 321 321 322 324 324 322 321 320 322 322 321 320 319 319 318 317 317 318 318 318 317 316 317 317 317 317 318 318 318 318 319 319 319 320
333 334 333 332 331 331 331 331 332 331 331 330 330 328 327 328 328 327 325 325 325 325 325 323 323 323 325 326 326 327 326 327 328 326 325 326 325 324 324 323 322 320 316 317 316 315 314 317 315 315 318 320 319 320 321 321 320 318 317 319 320 320 318 319 318 317 317 317 316 316 315 315 316 317 317 317 317 317 318 318 317 318 318 318 318
331 333 332 332 331 331 331 332 332 331 329 329 328 329 327 327 325 326 326 324 323 322 323 323 324 324 325 326 327 327 327 327 326 325 327 325 324 323 322 322 320 314 316 316 314 314 313 314 315 314 314 317 317 317 317 318 316 315 316 318 319 318 317 317 316 315 315 316 316 315 315 315 315 316 315 316 316 316 316 316 317 317 316 316 316
331 332 331 332 333 332 331 331 331 331 330 329 328 329 328 326 325 326 326 325 323 322 322 323 325 325 325 325 326 326 327 327 325 323 323 322 323 322 320 318 317 316 315 315 312 313 315 314 312 311 311 314 314 313 314 312 313 315 315 317 318 316 316 316 316 315 315 315 315 314 314 314 315 315 315 316 316 316 316 315 317 316 316 316 316
333 331 331 331 332 332 332 332 331 330 329 328 328 328 328 327 326 326 327 325 325 325 323 324 324 324 324 324 326 326 326 324 324 324 323 323 321 320 321 318 316 315 314 312 311 313 313 312 313 312 311 311 313 311 309 310 310 311 313 315 316 316 316 316 315 314 313 314 313 313 313 314 315 314 314 315 315 315 314 315 315 315 315 315 316
334 333 332 332 332 331 331 332 331 330 328 327 326 326 326 327 326 326 326 326 326 326 325 324 324 323 323 324 325 325 324 324 323 323 323 323 322 320 314 316 314 314 313 313 312 314 312 312 310 311 311 311 312 311 309 307 306 308 310 313 315 315 316 314 313 313 313 312 312 313 313 314 314 314 314 314 314 314 314 314 314 314 315 315 314
334 334 333 330 332 332 331 331 331 330 329 327 328 328 328 328 327 327 325 324 324 326 326 325 322 320 322 322 322 323 323 323 321 322 321 321 321 316 313 312 313 313 313 313 313 313 310 311 310 310 310 312 310 310 310 305 303 305 308 310 313 314 314 314 314 313 312 313 312 312 313 312 312 313 314 314 314 313 314 314 314 314 314 314 313
334 335 334 333 332 331 332 331 331 330 330 330 329 325 329 329 329 326 327 325 324 326 325 323 320 318 316 316 318 320 322 321 321 320 321 321 318 314 315 311 311 313 315 311 312 310 309 310 310 309 310 309 308 307 305 302 301 302 305 308 310 312 313 312 312 311 311 311 311 312 312 312 313 312 312 313 314 313 314 314 313 313 314 313 313
336 335 334 334 333 332 332 332 332 331 329 329 329 328 329 329 328 325 324 325 324 326 325 324 319 321 320 317 315 313 317 319 320 320 319 318 316 312 312 312 310 314 315 311 310 309 309 310 309 309 309 309 308 306 301 300 302 301 301 303 305 310 311 312 311 311 311 310 310 310 310 310 311 311 312 312 312 313 313 313 312 312 313 313 313
336 336 334 334 334 333 333 332 332 332 331 329 329 329 329 328 328 327 325 321 322 322 324 325 323 320 314 315 313 312 309 312 315 317 317 314 310 308 308 309 312 315 313 309 310 308 307 309 308 308 308 308 308 306 303 299 300 300 299 300 302 306 308 310 310 311 311 310 310 310 311 310 311 311 311 311 311 312 312 311 310 311 311 312 312
336 336 335 334 334 334 333 333 332 332 331 330 329 329 329 329 329 327 325 322 320 323 321 323 323 324 319 314 311 309 310 311 310 312 314 311 309 310 310 312 311 312 308 309 312 308 306 307 307 308 308 308 308 305 301 299 297 297 296 298 301 304 306 309 309 309 310 310 309 309 310 309 310 310 311 311 312 311 310 310 311 311 311 311 311
335 335 336 333 334 335 334 333 332 331 331 330 330 329 329 329 329 327 325 325 323 323 318 319 321 323 323 321 318 314 312 313 309 306 312 316 313 310 310 312 306 311 308 307 310 307 306 306 308 307 308 309 308 305 301 298 297 297 295 297 302 303 304 305 308 309 309 308 308 309 309 309 309 310 310 311 310 310 310 311 310 310 310 311 311
334 335 335 335 334 334 334 333 333 332 331 331 330 329 329 329 329 327 326 326 325 321 319 316 318 320 322 321 320 320 318 313 309 311 305 307 310 308 308 310 309 308 305 305 306 306 306 307 309 309 308 308 305 302 301 298 298 296 296 299 302 303 304 303 304 305 307 307 307 308 308 309 309 309 309 309 309 309 309 310 310 310 310 310 310
333 333 334 335 334 334 334 333 332 332 330 330 330 330 329 330 329 328 328 326 324 323 320 318 316 317 319 318 318 317 316 316 314 311 309 303 302 307 308 305 307 304 303 304 303 305 307 307 308 309 307 306 303 301 300 297 297 295 293 297 300 302 303 303 302 303 303 304 306 306 307 308 308 308 308 307 307 308 308 308 309 309 309 309 309
333 333 334 334 334 334 334 333 331 331 330 330 330 330 329 329 328 327 326 326 325 324 323 319 319 318 316 316 316 314 314 314 313 312 306 303 301 302 302 306 306 303 301 304 304 306 307 306 306 307 306 304 303 300 297 295 294 293 293 295 298 301 302 302 301 301 301 301 302 303 305 307 306 306 307 307 306 307 307 307 308 308 308 308 308
332 333 334 334 334 333 332 332 332 331 327 329 330 330 329 329 328 326 326 325 325 324 323 322 321 320 317 316 313 312 310 309 309 308 307 307 303 303 304 299 299 300 305 303 304 304 306 305 304 305 306 302 302 300 297 294 294 293 292 293 295 297 299 299 300 300 300 300 300 301 302 303 303 305 305 306 306 306 307 306 306 307 307 307 307
331 332 333 334 334 332 332 332 333 330 327 329 329 329 328 328 327 326 325 324 322 323 322 322 321 319 317 316 314 312 309 307 307 306 304 300 299 299 303 303 300 299 303 303 303 303 304 304 302 302 305 302 301 300 296 294 293 292 292 292 293 295 297 298 299 299 299 299 300 300 300 300 301 302 303 304 305 305 306 306 306 306 306 306 306
331 331 331 332 332 332 332 332 331 331 329 329 329 328 327 326 325 324 323 323 322 321 320 319 319 318 317 317 315 314 312 310 310 307 304 301 300 299 299 299 300 297 302 302 302 303 302 303 301 303 304 302 300 299 296 294 293 291 291 291 293 295 296 297 298 298 298 298 299 299 299 299 299 299 301 302 304 304 305 305 305 305 305 305 305
329 330 331 332 331 330 328 328 328 328 328 328 328 328 326 325 324 323 323 322 321 319 318 318 318 316 316 317 315 314 313 314 312 308 304 306 304 297 299 299 294 297 299 299 298 300 303 302 299 302 302 301 300 298 294 293 291 291 291 290 292 293 294 294 296 297 297 298 297 298 298 298 298 299 300 301 302 303 303 304 304 304 304 303 303
329 329 330 331 330 329 328 328 327 326 326 326 325 325 325 323 322 321 321 321 320 319 318 318 317 318 316 314 312 311 311 309 306 306 303 300 296 296 296 295 296 294 298 295 298 296 298 300 299 300 301 300 298 296 293 292 291 291 289 289 291 292 293 294 295 296 297 297 296 296 296 297 298 298 299 300 301 301 301 302 303 303 303 303 303
329 330 331 331 330 328 328 327 325 325 324 324 323 323 323 322 321 320 319 319 318 318 317 317 314 313 312 311 310 308 306 304 303 303 302 301 300 297 294 292 293 293 293 294 294 294 295 297 296 297 298 298 295 294 293 291 291 290 289 289 290 292 292 293 294 295 295 295 295 295 296 296 297 298 298 298 299 299 300 300 301 301 301 301 301
329 329 330 330 329 327 326 325 324 324 324 323 322 321 321 321 319 318 317 317 316 315 312 312 312 312 310 310 308 304 302 301 302 301 299 301 301 299 298 295 292 289 292 291 291 293 295 293 297 298 296 295 295 294 291 291 293 291 289 289 289 290 292 292 293 294 294 294 294 294 295 296 297 297 297 297 297 297 297 298 298 297 297 297 298
329 329 329 328 327 325 323 322 322 323 322 321 320 320 320 319 317 316 315 313 314 311 309 309 309 309 309 308 303 301 299 299 299 299 299 298 300 299 299 294 296 291 290 288 290 291 295 293 291 296 295 295 294 294 292 291 291 291 289 289 289 289 291 291 292 293 293 293 293 294 294 295 296 296 296 296 296 296 296 296 296 296 297 297 298
328 328 328 325 323 316 321 319 318 318 319 319 318 318 316 313 312 311 310 310 309 306 306 306 306 307 306 303 300 297 297 296 297 297 297 297 296 297 296 297 294 292 291 287 289 292 292 293 293 292 293 293 293 293 292 290 290 290 289 289 289 289 291 291 291 291 291 292 292 292 294 295 295 295 295 295 295 295 296 296 296 296 296 297 298
325 323 323 320 318 317 318 316 315 314 312 312 313 312 312 311 310 308 307 307 305 303 304 305 306 304 300 299 297 295 295 295 295 295 295 295 295 295 293 294 295 294 292 291 286 292 291 291 291 292 292 293 293 291 292 292 291 290 289 289 289 290 290 290 290 290 290 291 291 292 293 294 294 294 294 294 294 295 295 295 295 295 296 296 297
324 321 318 316 314 313 312 313 312 310 309 307 309 310 311 311 308 305 304 303 300 299 298 299 299 298 297 295 294 293 293 292 292 293 293 293 293 293 293 293 293 292 293 290 288 287 292 292 292 292 293 292 292 290 290 291 291 289 289 288 289 289 288 288 290 289 289 290 290 291 292 292 292 292 293 293 294 294 294 294 295 295 295 294 295
319 317 315 313 312 311 310 308 306 305 306 305 306 307 308 306 303 302 299 300 300 297 297 296 296 296 294 292 291 292 292 291 291 290 290 291 291 291 292 291 290 291 291 290 287 287 289 293 292 292 292 292 289 291 289 288 288 289 288 288 288 288 287 287 287 289 288 289 289 290 290 290 290 291 291 291 292 292 293 293 293 293 292 293 293
314 314 313 312 310 310 309 307 305 304 305 306 304 305 303 301 300 301 297 298 298 295 294 293 293 293 292 291 290 290 290 290 289 289 289 288 288 288 288 288 288 288 289 287 287 287 285 289 289 291 290 291 286 290 288 286 287 287 286 287 288 288 287 287 286 287 288 288 289 289 289 289 289 289 290 290 291 291 293 293 291 291 291 291 291
309 311 310 309 309 308 307 305 305 303 304 303 301 302 301 301 300 298 297 297 297 294 292 291 291 291 290 289 289 290 290 288 288 288 288 288 288 288 287 287 287 287 287 288 286 285 285 286 288 287 287 288 287 286 288 288 287 287 285 285 286 287 287 287 286 287 288 288 288 288 288 288 288 288 289 289 289 290 290 290 290 290 290 290 291
307 306 308 308 307 306 305 303 303 301 300 300 299 300 300 299 299 299 296 295 295 293 291 290 290 290 289 288 288 288 288 287 287 287 287 287 287 287 287 287 287 287 287 286 287 286 285 284 285 286 286 285 285 288 289 288 285 284 285 285 286 285 286 286 285 285 286 287 287 287 287 287 287 287 288 289 289 289 289 289 289 289 289 289 290
306 304 303 303 304 303 303 302 301 300 300 299 299 298 298 298 298 297 294 294 292 291 290 290 289 289 288 287 287 287 287 286 286 286 286 286 287 287 286 286 286 286 286 286 285 285 284 283 284 286 286 285 286 285 286 283 283 283 284 283 283 283 284 285 286 286 286 286 286 286 285 286 286 286 287 288 288 288 288 288 288 288 287 288 289
302 301 302 299 300 300 299 299 299 298 298 297 297 296 295 295 295 294 293 291 291 290 289 289 289 289 288 287 287 287 287 286 286 286 286 286 286 286 286 286 286 285 285 285 285 284 284 284 284 283 285 284 283 284 284 283 282 281 281 282 282 283 282 282 282 284 284 284 283 283 283 284 284 285 286 287 287 287 288 287 287 287 287 288 289
299 298 297 297 296 297 298 297 297 295 295 294 294 294 294 294 293 291 290 290 289 288 288 288 288 288 288 287 287 287 287 287 287 286 286 286 286 286 286 285 285 285 284 284 284 284 283 283 283 284 283 284 283 281 283 283 282 282 280 279 280 282 282 281 280 282 282 283 284 283 283 283 284 283 285 286 286 286 286 286 285 286 286 288 289
295 295 296 296 295 296 297 297 297 295 294 294 293 293 292 292 291 290 289 288 288 287 287 287 287 287 287 287 287 287 287 288 288 287 287 286 286 285 285 285 285 284 284 284 284 283 283 283 283 282 282 282 282 283 283 281 280 279 280 279 277 278 279 279 279 279 280 281 279 279 281 282 282 283 284 284 285 285 284 284 284 285 286 288 289
295 293 294 295 295 294 293 293 293 293 293 293 292 291 291 290 289 289 288 287 287 286 286 286 286 286 286 287 286 287 287 285 286 287 287 287 286 285 285 285 285 284 284 284 282 281 282 283 281 283 281 281 281 280 279 279 278 278 279 279 277 278 278 278 279 280 278 278 278 278 278 280 280 280 280 280 281 282 281 282 283 285 286 288 288
292 292 293 293 294 294 293 292 292 292 292 292 289 290 290 289 289 288 288 287 286 286 285 285 285 286 286 286 285 284 283 284 284 285 285 285 285 286 285 285 284 284 282 281 281 282 280 280 281 280 278 278 279 279 278 279 279 280 278 277 276 277 277 277 277 277 278 278 277 276 277 280 279 279 280 279 280 280 279 280 281 284 285 287 288
291 291 292 292 292 292 292 291 291 291 291 290 289 291 291 291 289 288 287 287 286 286 285 284 284 284 285 284 283 283 283 283 283 284 284 284 285 285 285 284 285 284 281 280 281 281 280 279 279 278 279 278 279 279 279 279 279 278 277 276 276 276 275 273 273 276 278 278 276 275 276 279 279 278 278 278 279 278 279 279 284 285 285 286 287
289 289 290 291 292 291 291 290 290 290 290 289 290 291 291 291 289 288 287 286 286 285 285 285 284 284 284 283 283 283 283 283 283 283 284 284 284 284 284 283 283 282 284 281 280 279 279 278 278 278 277 277 278 279 279 278 278 277 277 276 276 275 274 274 274 273 277 279 275 275 275 278 278 278 276 277 278 278 279 281 284 285 286 286 286
290 289 290 290 290 290 290 290 290 290 289 289 290 291 291 290 290 288 287 286 286 285 285 285 284 284 283 283 282 282 283 284 283 283 283 283 284 284 283 282 282 282 282 283 283 281 279 277 276 277 279 278 277 278 279 278 279 276 276 275 276 276 275 274 274 274 276 278 276 275 274 276 278 276 275 277 277 277 278 281 284 285 285 285 285
288 289 289 289 289 289 289 289 289 288 288 288 290 290 290 290 290 289 287 286 286 285 285 285 284 284 283 282 282 282 282 282 283 283 283 282 282 282 281 281 280 281 281 282 281 280 280 279 278 276 279 280 277 279 280 279 277 275 275 275 276 275 275 274 275 275 276 278 276 275 273 275 277 275 274 275 276 276 277 280 283 284 285 285 285
287 287 288 288 288 287 288 288 288 287 287 288 290 290 290 290 290 289 287 287 286 285 285 285 284 284 283 283 282 281 281 281 283 283 282 282 282 282 281 281 281 281 280 280 280 279 279 280 280 280 280 281 280 279 279 279 278 277 277 276 276 275 275 276 275 276 276 278 277 276 272 275 276 274 274 275 275 275 276 279 282 283 284 284 284
287 287 287 287 286 286 287 287 287 287 287 289 289 289 290 290 290 287 287 286 285 285 284 284 284 284 283 283 282 282 281 282 283 284 284 283 282 281 279 280 280 281 280 281 281 282 281 281 281 280 279 279 280 279 279 278 278 278 277 277 276 274 273 272 271 273 274 276 277 276 273 272 275 274 273 274 275 274 275 276 280 282 283 283 283
286 287 286 287 287 287 287 287 287 287 287 288 289 289 289 290 289 286 285 285 284 284 283 283 283 283 283 283 282 282 282 282 284 284 285 283 281 279 279 278 279 278 278 280 281 281 281 281 280 279 279 279 279 280 280 280 279 278 276 274 272 273 271 270 271 270 272 275 277 276 273 271 274 273 272 273 273 273 274 275 276 280 282 282 282
286 286 287 286 287 287 286 287 287 287 287 287 288 289 289 289 287 285 285 285 283 283 282 282 282 282 282 283 283 282 282 282 284 285 285 283 280 279 278 278 277 276 276 279 279 279 281 280 279 277 277 277 277 278 278 279 279 278 273 271 271 272 270 270 269 271 272 274 276 276 272 272 273 273 271 272 273 272 272 273 276 278 280 279 280
286 286 286 286 286 286 286 286 286 286 286 286 288 289 289 289 287 285 285 284 283 282 281 281 281 281 281 282 283 283 282 283 285 285 286 283 280 279 278 277 275 275 277 279 278 277 275 272 272 274 274 275 276 275 276 277 277 277 276 272 272 271 271 271 271 271 270 272 275 277 272 271 271 272 271 269 268 271 272 273 274 276 276 275 275
Wind_Speed
5 5 4 4 3 3 3 3 2 2 2 2 2 2 2 2 2 2 1 2 2 3 3 4 4 4 4 4 4 5 3 4 4 4 3 3 4 5 7 7 6 8 9 11 12 12 13 13 13 13 13 14 14 15 17 17 17 19 20 20 19 20 21 20 22 22 21 22 22 21 22 22 22 22 22 22 22 22 21 21 21 21 20 18 17
5 4 4 4 3 3 3 3 3 2 2 2 2 2 2 2 1 2 3 3 3 2 2 5 5 5 4 4 4 5 4 3 4 4 4 4 5 3 9 6 4 7 10 11 13 13 13 13 13 14 15 15 15 16 16 17 18 18 17 18 19 20 22 21 21 21 21 20 21 21 21 22 22 24 24 24 24 24 25 24 25 24 22 22 22
5 5 4 4 4 4 4 3 3 3 2 2 1 2 2 3 3 4 3 3 3 3 4 4 5 5 5 3 4 4 4 4 4 4 4 4 3 3 6 7 4 5 9 11 12 12 13 13 14 14 14 14 15 15 15 17 17 16 18 19 20 21 20 20 21 21 21 21 22 22 23 23 23 24 24 24 24 24 24 25 25 25 25 26 25
5 5 5 5 5 4 4 4 3 4 3 3 3 3 3 3 1 2 3 4 4 4 4 5 5 5 3 3 3 4 4 3 4 4 3 3 2 2 3 4 6 6 5 8 12 12 12 13 14 14 13 14 14 15 16 16 16 18 19 19 19 19 20 21 21 21 22 22 22 22 22 22 23 23 23 24 24 24 24 24 24 24 24 24 24
5 5 5 4 5 4 4 4 4 4 3 3 2 3 3 3 3 3 4 5 5 6 5 4 4 4 3 3 2 3 3 3 3 3 3 2 2 2 2 4 4 7 8 7 10 12 12 13 13 13 14 14 14 15 16 16 18 18 18 19 20 20 21 20 20 21 21 21 21 21 21 22 22 22 23 23 24 24 25 25 25 25 25 25 25
5 6 5 5 5 5 5 5 4 2 1 2 4 5 4 4 4 4 4 5 5 4 4 4 4 5 4 3 2 3 3 2 2 3 2 2 2 3 3 4 3 3 4 7 10 12 12 12 13 14 14 15 15 16 17 17 18 18 19 19 20 20 20 20 20 20 20 21 21 21 21 22 22 23 23 23 23 24 24 25 25 25 26 26 26
6 5 6 5 5 5 5 5 4 3 3 4 4 4 4 5 5 5 5 5 4 4 4 4 5 5 3 2 3 3 3 2 1 1 2 1 3 2 3 3 4 3 3 5 7 11 9 11 14 14 14 15 17 17 18 18 19 19 20 19 19 20 20 20 21 21 21 21 21 21 21 21 22 22 23 23 23 24 24 24 24 25 25 26 27
7 6 6 6 5 5 5 5 4 4 4 5 4 5 4 4 4 4 4 5 5 4 4 4 4 4 2 2 2 2 3 2 1 1 2 2 2 2 2 3 3 3 3 3 4 7 9 8 12 14 14 16 17 18 19 19 20 20 19 19 19 20 20 20 20 20 21 21 21 21 22 22 22 22 23 23 23 23 24 24 24 25 27 27 27
8 7 6 6 6 5 5 6 5 5 5 4 5 4 4 3 3 3 3 4 4 4 3 3 2 3 3 3 2 2 2 2 2 2 1 2 2 3 2 2 3 2 3 3 3 4 7 8 10 12 13 15 17 19 19 19 19 20 20 19 20 20 20 19 20 20 20 20 20 21 21 22 22 22 23 23 23 23 24 24 25 26 26 26 27
8 8 7 7 6 6 6 5 4 4 4 5 5 4 4 4 4 3 3 3 4 3 3 3 2 3 4 3 3 3 2 2 2 2 1 1 3 2 2 2 3 3 3 3 3 3 3 8 12 14 12 14 17 19 19 19 19 20 21 19 19 19 19 19 20 20 20 20 20 21 21 21 22 22 23 23 23 24 24 25 26 26 27 27 27
9 9 8 7 7 7 6 7 6 6 5 5 5 5 5 5 5 4 2 2 3 3 3 3 3 3 4 4 4 3 2 3 1 1 1 2 2 1 2 2 2 3 2 3 3 3 3 3 2 4 7 12 15 17 18 19 18 19 20 19 19 19 19 19 19 19 19 19 20 21 21 21 22 22 23 23 23 24 24 25 27 27 28 28 28
9 9 8 8 8 7 8 8 7 7 6 6 6 5 6 6 6 5 4 3 2 2 2 3 4 5 5 4 2 1 0 1 1 2 1 2 1 1 2 2 2 2 3 2 3 2 3 3 3 3 4 9 13 14 16 16 17 18 20 19 18 18 18 18 19 19 19 20 20 20 21 21 21 22 22 23 23 24 25 25 26 27 27 26 29
9 9 9 8 8 7 8 8 8 7 6 7 6 6 5 5 5 5 5 5 4 3 2 1 4 4 4 3 3 2 4 4 4 2 1 2 1 2 2 2 2 2 2 2 2 3 3 3 3 3 3 2 7 12 12 13 15 17 19 18 18 18 18 18 18 19 19 19 20 21 21 22 22 22 23 23 24 25 25 26 27 27 27 28 30
9 9 9 9 9 8 8 7 7 8 7 7 7 6 6 5 4 6 5 5 5 4 3 2 5 3 2 3 4 4 5 4 5 3 3 2 2 2 1 2 3 2 1 2 2 3 3 3 3 3 3 3 4 5 6 7 9 16 18 18 18 17 17 18 18 19 19 20 20 21 21 22 22 23 23 24 25 26 26 27 28 28 28 29 29
10 9 8 9 9 9 8 7 7 7 7 8 8 8 7 6 6 6 5 5 4 3 3 5 4 0 1 3 4 5 3 3 3 3 3 2 2 2 2 2 3 2 1 2 2 3 2 3 3 3 3 3 3 4 5 6 6 12 15 16 16 17 17 17 18 19 20 20 21 21 22 22 23 23 24 25 26 26 27 28 28 29 29 30 30
10 10 9 8 8 9 9 8 8 8 9 9 8 7 7 7 7 8 7 6 5 5 5 6 6 3 4 4 1 2 4 5 4 4 4 4 2 3 2 2 1 1 1 2 2 2 3 2 3 3 3 3 3 4 4 4 6 9 11 12 15 16 16 17 18 19 20 21 21 22 22 23 24 25 25 26 27 28 28 29 30 30 31 31 32
11 12 11 10 10 9 9 9 9 9 8 9 9 9 8 8 7 7 7 7 7 5 5 6 7 6 4 3 4 4 2 5 2 4 4 3 3 2 2 1 1 1 2 2 1 2 2 3 3 3 3 3 3 3 3 4 4 5 7 10 14 15 16 17 18 19 20 21 22 22 22 24 25 26 27 28 29 30 31 31 31 31 32 32 33
12 12 12 10 10 11 11 10 9 9 9 9 9 8 8 7 7 8 8 8 5 4 4 4 6 6 5 4 5 3 2 3 1 4 3 1 3 2 2 1 1 1 2 2 1 2 2 2 2 2 2 2 2 2 2 3 4 4 5 10 17 16 16 17 18 19 21 22 23 23 24 25 26 27 28 29 29 31 30 31 32 32 33 33 34
11 11 11 11 11 11 10 9 8 9 9 9 9 9 8 8 7 6 7 4 4 6 6 5 2 4 5 4 3 3 2 2 3 1 5 3 2 3 3 1 1 2 2 2 2 2 2 2 1 2 3 2 2 2 2 3 5 5 10 16 16 17 17 18 19 20 22 23 24 24 25 26 27 28 29 29 30 31 31 31 32 33 34 35 35
11 11 11 12 11 11 10 9 11 11 8 9 9 8 7 5 6 7 6 5 7 7 7 6 6 4 6 6 5 2 2 2 2 3 3 3 6 3 2 3 2 2 2 2 2 2 1 2 1 1 3 2 2 2 2 3 3 4 6 17 18 18 18 19 19 20 21 23 24 24 25 26 27 28 28 29 30 30 31 31 32 32 33 34 34
11 11 11 12 8 7 8 9 9 9 8 8 7 8 8 7 7 6 7 6 7 7 5 7 7 6 7 6 4 5 3 3 3 2 3 1 3 5 3 2 2 2 2 2 2 1 1 2 2 2 2 3 2 2 3 3 4 4 7 17 19 19 19 19 19 20 20 21 22 24 25 26 26 27 28 28 29 30 30 31 31 32 32 33 33
12 12 11 12 10 11 9 9 8 8 7 8 8 7 6 6 7 8 7 9 7 6 6 6 7 5 7 6 6 5 4 3 5 4 3 3 1 1 1 1 2 2 1 2 2 1 2 2 2 2 2 3 2 2 3 4 4 4 7 15 17 18 17 18 18 19 20 21 22 23 24 24 26 27 28 28 29 30 30 31 32 32 32 33 33
10 10 12 11 11 11 11 10 9 7 6 7 6 6 7 8 8 10 9 8 6 6 5 5 6 6 6 6 6 7 6 5 6 6 4 2 2 2 1 1 1 1 1 2 1 0 0 2 2 2 2 2 2 2 2 3 5 5 9 13 16 16 16 17 18 19 20 21 22 22 22 23 24 26 27 29 30 30 30 31 31 32 32 33 34
10 10 11 11 9 8 9 9 8 7 7 8 6 8 9 8 7 7 7 7 6 5 5 5 7 5 7 6 6 5 5 4 4 5 5 3 3 2 2 2 1 2 0 1 0 1 0 1 2 2 1 2 2 2 2 3 4 9 6 11 15 15 15 16 17 18 19 21 21 21 22 23 24 26 27 29 29 30 30 31 32 32 32 33 34
11 11 12 12 10 8 7 7 6 6 7 7 8 9 8 7 7 8 9 10 8 8 7 8 8 7 6 6 5 3 3 2 1 4 3 1 2 2 2 2 2 2 3 1 2 1 2 2 2 1 1 1 1 2 2 3 3 5 7 9 14 14 14 15 16 17 18 20 20 21 22 23 24 25 27 28 29 30 30 31 31 32 32 33 34
11 10 12 12 9 9 9 8 7 7 8 9 8 8 8 7 7 9 10 8 8 9 8 8 7 5 3 2 4 2 3 2 2 2 3 3 2 3 3 2 2 3 2 3 2 1 2 1 2 2 1 1 1 2 2 3 3 5 8 8 9 12 14 15 16 17 19 20 20 20 21 22 24 26 26 28 29 30 30 31 31 32 32 33 34
9 8 10 12 10 9 9 9 7 7 7 7 7 8 8 7 7 8 8 7 7 7 5 8 6 4 5 5 5 4 3 2 3 2 2 2 2 3 3 4 5 4 3 4 4 6 2 2 3 3 3 2 2 2 2 2 2 4 7 6 5 10 13 15 16 18 18 18 18 18 20 21 24 25 26 27 28 29 31 32 32 32 32 32 33
8 9 10 10 10 9 9 9 8 8 8 9 8 8 8 8 7 7 8 5 7 6 4 5 7 8 8 7 6 5 3 3 2 2 2 1 1 1 2 2 2 4 5 4 5 4 3 2 2 2 3 2 2 1 3 3 2 4 7 6 5 6 10 13 16 16 15 16 17 18 19 20 23 25 25 26 28 29 31 31 31 31 31 31 32
7 7 8 8 8 9 9 9 9 9 8 8 7 7 7 6 6 8 7 7 7 8 5 6 6 7 7 7 6 5 4 3 3 3 3 2 1 1 1 2 1 2 3 2 3 3 3 3 2 2 2 2 1 2 2 3 1 1 4 5 5 4 8 14 16 14 13 14 16 17 18 21 23 25 25 26 28 28 29 29 29 30 31 32 33
6 5 7 8 8 8 9 9 8 8 8 8 8 7 6 5 6 7 7 8 7 5 5 6 7 6 6 7 5 5 5 4 4 4 3 3 2 2 2 1 1 2 1 3 1 2 2 5 2 2 2 2 1 1 2 3 2 1 4 5 4 4 10 16 15 11 11 13 16 17 19 21 23 24 25 27 27 28 28 28 29 30 31 32 33
6 6 7 7 7 8 8 8 8 8 7 6 7 8 8 7 7 6 6 7 7 6 5 6 6 6 7 8 5 5 6 5 5 4 3 2 2 2 1 1 1 2 0 1 1 0 3 1 1 3 1 0 1 2 2 2 2 3 4 4 5 7 11 9 8 9 10 13 16 18 20 22 22 23 24 26 27 27 28 29 29 30 31 32 33
7 8 7 8 8 8 7 8 9 9 9 7 7 8 8 8 7 6 6 6 7 7 6 4 4 6 8 7 6 6 5 5 5 4 4 2 2 2 2 2 1 0 0 1 2 3 2 1 0 1 1 0 2 2 2 2 3 4 3 5 6 8 5 4 6 9 10 13 15 18 20 20 22 23 24 25 26 27 28 29 29 30 30 31 32
7 7 8 8 8 8 8 7 8 8 10 10 9 8 7 6 6 6 5 6 7 6 7 7 5 6 7 7 6 5 5 6 5 4 4 3 2 2 2 2 2 1 1 1 2 3 3 1 1 1 1 1 2 1 2 2 3 3 5 4 5 4 4 4 4 7 10 13 15 16 17 19 21 22 23 24 25 26 27 28 28 29 29 30 30
7 8 8 7 8 8 9 9 9 10 10 11 9 8 7 7 6 5 6 7 7 7 7 7 7 6 7 8 7 6 4 5 5 4 4 4 3 3 2 2 3 3 1 1 2 2 3 1 1 1 1 0 2 2 2 3 3 3 4 4 3 3 4 4 4 4 9 14 16 16 17 20 20 21 23 24 25 26 26 27 28 29 29 30 31
6 7 8 8 9 9 9 10 11 10 10 8 8 9 8 8 8 8 7 8 9 9 8 9 8 7 7 7 7 6 5 6 5 4 4 4 3 3 3 2 2 3 2 1 1 2 3 3 1 2 1 1 2 2 2 2 3 4 4 4 3 4 4 4 4 4 8 12 14 15 17 20 20 20 21 22 24 24 25 26 27 27 27 28 30
8 6 7 8 8 9 10 8 8 9 9 8 9 9 10 10 9 10 9 8 7 8 9 10 9 8 8 8 7 7 6 7 5 5 4 3 4 3 3 3 2 3 3 2 2 1 1 2 2 1 2 2 2 2 1 1 3 3 3 3 3 5 4 4 4 4 8 12 13 13 16 18 19 20 21 22 22 23 25 26 27 27 26 27 29
7 7 6 5 7 8 8 9 10 10 11 10 10 10 8 8 9 9 9 8 8 9 9 8 8 8 8 8 9 8 7 7 6 5 5 5 4 4 4 4 3 3 3 2 2 2 2 4 4 3 2 3 2 3 0 2 4 3 2 2 4 5 5 5 3 3 7 11 13 16 17 16 16 18 20 21 21 22 24 25 25 25 26 28 30
6 6 7 7 8 9 8 9 8 8 9 9 8 9 9 8 8 8 8 8 8 8 7 7 7 6 7 8 8 8 8 8 7 6 6 6 4 4 4 4 4 3 3 2 2 3 3 4 4 3 3 2 2 2 1 1 3 3 3 4 4 2 4 6 3 3 3 3 3 6 11 12 14 18 19 21 22 22 24 24 23 22 25 27 29
6 6 5 6 5 7 7 7 7 7 7 8 7 7 9 9 9 9 8 8 7 7 6 6 5 5 6 7 8 7 7 6 7 7 7 6 5 5 5 4 4 3 3 3 3 3 3 3 3 3 3 2 2 2 1 1 2 2 4 6 4 3 5 7 10 6 3 3 6 12 12 12 14 12 15 19 21 22 24 24 22 23 25 27 27
4 5 6 7 6 5 6 8 7 6 6 6 7 8 8 9 9 9 9 9 8 7 7 6 5 5 6 6 6 6 5 4 5 6 6 6 5 5 4 4 4 3 3 2 3 3 3 2 2 2 2 2 2 1 2 2 2 1 3 6 9 10 7 5 4 7 5 4 4 5 8 9 10 12 14 15 18 22 22 20 21 23 26 27 27
3 3 3 4 5 5 4 4 5 6 7 7 7 9 10 9 9 10 9 9 9 9 8 7 5 5 5 5 5 4 4 5 5 5 4 4 5 5 4 4 4 4 3 2 2 2 1 2 2 2 2 3 2 2 3 3 5 5 6 5 5 5 7 8 7 3 1 4 6 5 5 5 7 7 7 7 9 14 14 18 15 21 26 27 27
3 3 4 4 5 6 6 5 5 6 7 6 7 13 13 12 12 10 9 10 10 9 9 8 6 5 5 5 5 8 8 7 6 6 5 3 3 1 5 5 4 4 3 2 2 1 1 2 3 1 2 2 2 2 2 2 2 4 4 5 6 7 8 8 4 1 3 6 8 8 6 5 6 7 7 8 9 11 9 8 11 17 22 26 26
3 3 4 6 5 5 6 7 7 7 6 6 12 15 15 16 13 12 12 11 9 9 9 10 9 8 6 6 6 6 7 6 5 7 6 5 4 7 8 7 4 2 3 3 3 1 1 2 1 1 2 2 2 1 2 2 3 4 4 4 5 6 7 9 11 8 2 9 7 7 7 6 6 9 9 8 10 10 10 10 21 22 24 25 26
4 4 5 5 6 6 6 6 7 7 6 8 14 14 16 17 14 12 10 10 10 9 9 9 8 8 8 7 6 5 5 6 6 6 7 7 7 6 6 4 3 3 1 2 2 2 2 2 2 2 1 2 1 2 2 3 3 3 3 4 4 5 6 7 7 8 7 9 9 8 8 5 4 6 8 8 9 9 11 17 22 23 23 25 25
4 5 6 6 6 6 6 7 7 6 4 9 14 15 15 16 16 12 9 10 10 9 9 9 9 8 8 7 7 6 5 9 7 6 6 6 7 7 6 5 3 4 4 3 2 1 1 1 2 3 2 1 2 1 2 3 4 4 4 4 4 4 6 7 8 9 10 9 8 8 8 6 5 8 9 7 8 9 10 14 21 22 24 25 25
4 3 3 5 5 5 6 6 6 5 5 10 13 15 16 16 16 12 8 10 9 9 9 9 8 8 8 8 8 7 6 8 7 7 7 6 6 6 5 4 4 5 5 5 4 3 3 3 3 3 3 1 2 2 2 2 2 3 4 5 4 5 6 7 9 10 10 6 6 9 10 4 5 7 8 8 7 9 8 13 20 21 22 24 23
3 4 4 5 6 5 6 5 6 6 5 11 11 12 12 13 16 10 8 7 7 7 7 7 7 7 7 7 7 7 8 8 6 8 7 8 6 5 5 4 5 5 5 5 5 4 4 3 3 3 2 2 2 2 2 2 3 4 4 5 5 5 6 6 7 7 5 3 5 6 7 9 7 8 7 9 8 8 7 11 18 19 21 23 22
1 2 2 3 4 4 4 5 4 6 5 13 14 14 11 12 13 7 7 8 8 7 7 7 6 6 6 7 7 7 8 8 9 12 9 7 6 6 4 3 2 2 3 3 1 0 1 1 2 2 3 3 5 5 5 5 4 4 4 3 3 4 3 4 5 4 4 3 5 5 7 8 7 8 9 8 9 8 8 5 13 18 20 21 21
3 3 4 4 4 5 5 5 6 6 6 13 15 15 13 14 10 6 7 6 6 7 6 6 5 5 5 6 5 7 8 7 11 14 12 10 6 6 4 4 3 2 2 3 4 5 5 5 6 7 9 9 9 9 8 8 6 3 3 3 2 1 2 4 4 2 4 5 5 4 5 8 7 8 9 7 9 8 6 5 7 13 17 19 19
5 6 4 4 4 5 6 7 9 7 7 13 17 14 15 14 12 8 7 7 6 5 5 5 4 4 4 7 6 6 7 7 15 15 14 10 6 6 6 6 6 5 4 3 2 3 7 8 7 8 7 7 6 7 8 7 7 5 2 3 1 1 3 3 4 3 5 5 1 4 5 6 7 7 9 8 7 4 4 4 9 9 12 12 17
2 1 1 2 3 3 4 5 7 7 5 9 15 11 14 13 11 5 6 6 7 6 5 5 4 4 4 5 6 7 7 9 17 15 15 11 6 7 7 6 6 6 5 4 4 3 2 0 2 2 3 4 4 4 3 4 6 6 4 3 2 1 3 3 4 5 5 2 2 6 6 6 6 6 7 9 5 4 0 6 8 7 4 5 6
Wind_Direction
183 184 183 189 167 185 193 195 188 182 179 203 212 213 212 211 201 221 217 258 299 286 329 294 301 323 334 337 335 328 349 326 340 341 346 338 335 104 77 61 11 9 14 18 22 23 23 23 21 19 18 18 18 20 17 17 15 16 14 12 10 13 16 18 19 17 16 15 14 12 8 5 2 358 356 354 351 349 348 345 342 340 335 325 315
181 190 179 179 179 177 194 186 184 173 184 197 185 229 202 179 209 217 231 275 292 303 305 308 317 316 319 325 322 327 325 320 323 342 344 334 342 83 92 75 34 24 27 31 30 25 24 25 26 24 24 23 23 23 21 18 18 18 16 16 20 22 24 22 20 18 16 15 13 10 8 4 0 359 357 355 354 353 351 349 345 342 340 336 332
186 189 185 180 184 183 196 184 188 177 178 212 163 251 237 254 289 305 316 306 301 311 311 307 304 304 313 328 326 317 319 316 334 343 340 1 344 356 114 114 82 49 39 41 35 28 28 28 28 27 26 26 25 26 25 27 28 26 26 27 26 25 22 21 19 16 15 13 11 9 6 4 1 359 357 355 353 351 348 346 344 343 341 339 336
201 190 199 191 188 188 199 190 194 174 193 232 226 220 268 293 303 292 297 293 289 296 298 300 302 309 312 307 318 319 316 332 332 338 12 356 1 16 45 123 132 103 79 57 47 35 31 31 33 32 31 30 31 32 35 36 35 34 32 30 29 26 23 21 18 15 13 12 9 7 5 2 360 357 355 352 350 348 346 344 342 340 338 336 334
195 206 204 213 216 204 212 208 214 224 208 201 274 275 246 243 245 238 269 279 285 286 282 282 292 296 300 316 329 309 324 331 334 5 16 18 27 25 31 36 104 143 126 94 66 45 34 38 39 37 38 38 39 41 42 44 40 37 35 31 28 26 22 19 17 14 12 10 8 5 2 359 357 355 353 351 349 347 345 343 341 339 337 335 333
213 201 206 217 213 213 220 220 221 220 240 214 215 233 250 262 276 267 263 262 271 283 301 304 301 298 294 337 316 316 333 324 352 24 351 29 27 36 39 42 24 30 96 115 85 59 40 44 43 41 44 47 46 47 48 45 42 38 34 30 26 24 20 17 15 13 11 8 5 3 1 359 357 354 352 351 348 346 344 342 340 338 337 334 333
214 208 205 216 210 213 217 232 232 201 207 221 247 267 256 256 262 271 282 289 288 291 288 281 282 282 301 322 315 337 309 318 18 6 33 13 54 51 52 42 23 34 22 126 108 77 55 48 46 43 50 53 51 50 48 45 42 37 31 26 24 23 19 16 14 12 9 7 5 3 0 358 355 353 351 349 348 345 344 342 339 338 335 333 332
211 215 209 212 217 217 217 227 232 233 229 239 224 246 266 258 259 272 277 275 277 272 268 282 284 292 317 312 303 317 313 301 356 22 24 4 56 55 53 41 42 20 34 43 68 94 77 67 56 47 49 54 54 50 47 44 40 33 26 24 23 22 18 15 13 10 8 5 3 1 359 356 354 353 351 348 346 345 342 341 339 336 336 335 333
207 208 219 214 220 227 225 218 222 231 237 242 246 243 245 255 258 244 263 283 284 282 276 262 279 330 313 279 279 286 285 306 334 27 204 42 58 48 47 55 56 28 43 45 44 82 113 102 88 59 48 54 55 52 48 42 36 30 26 23 22 19 17 14 12 10 7 4 2 360 357 355 353 351 349 347 345 344 342 340 338 337 336 334 331
203 205 212 219 217 219 229 229 222 218 232 239 244 244 238 250 255 244 237 257 258 275 299 325 341 319 303 290 290 289 293 293 70 236 48 47 76 45 33 49 60 44 41 47 49 59 87 126 113 81 60 58 59 55 49 39 33 29 24 22 20 18 16 14 12 9 5 2 0 358 356 354 351 350 348 346 344 343 341 340 338 337 335 333 330
201 203 210 211 217 222 231 225 222 223 230 233 231 234 243 237 241 246 229 236 324 343 322 327 306 268 269 277 283 290 312 58 257 91 81 93 97 88 62 51 68 52 40 53 57 57 60 51 67 90 82 74 67 61 50 39 32 29 23 20 18 16 15 12 9 7 3 0 359 357 355 353 351 349 347 345 343 342 341 340 338 337 335 333 330
202 203 207 212 213 218 225 225 222 223 223 227 232 228 221 223 232 244 239 214 181 263 280 287 292 278 246 247 260 249 42 335 202 135 106 124 83 54 60 62 50 61 58 61 62 55 60 56 65 59 99 96 89 77 62 45 33 30 23 18 15 14 12 9 7 4 1 359 358 356 354 352 350 348 346 344 343 342 340 339 337 336 334 331 329
204 202 204 208 216 220 224 225 224 224 220 223 225 236 232 227 222 226 242 241 229 215 222 282 279 263 232 212 241 192 115 199 191 126 137 118 64 74 65 54 50 58 60 72 63 56 57 60 60 59 55 69 104 95 77 54 34 29 24 17 12 12 8 5 3 1 358 357 357 356 354 352 350 347 345 344 342 342 340 339 337 336 333 331 330
210 203 205 206 211 221 222 218 218 225 226 229 229 232 236 232 220 234 217 242 242 215 174 204 247 260 302 307 276 163 149 169 196 143 130 115 89 81 52 62 51 47 67 89 84 64 62 63 61 60 57 58 57 56 47 40 33 30 23 15 9 7 3 2 0 359 358 358 357 355 354 351 348 346 345 343 343 342 341 339 337 335 333 330 329
218 209 206 208 213 218 220 219 221 221 222 229 230 230 229 229 226 235 232 202 236 224 205 207 268 339 219 292 240 163 159 162 204 222 129 109 112 101 65 56 61 43 45 74 79 83 76 74 72 63 60 54 54 62 53 44 39 42 24 13 6 3 359 358 358 358 358 358 358 356 353 351 348 346 344 343 342 341 340 338 336 334 332 330 328
223 216 216 208 209 217 223 225 226 224 227 227 227 227 225 226 230 229 234 224 200 212 205 213 232 228 220 219 300 306 194 175 167 141 122 117 108 104 62 47 59 76 87 72 80 81 81 79 77 69 67 57 52 64 59 42 29 45 25 5 1 1 357 356 356 357 357 358 357 355 352 350 348 345 344 344 343 342 340 337 335 333 331 330 328
223 220 216 221 219 219 221 225 228 225 223 228 232 232 228 230 224 220 209 222 218 191 196 214 222 249 283 242 220 208 208 92 196 141 160 153 136 105 92 18 40 60 95 88 88 96 92 78 79 79 69 61 61 65 54 42 28 35 13 358 357 357 357 355 355 356 358 358 356 354 351 348 346 345 345 345 343 341 339 336 334 332 331 330 329
220 222 221 213 214 213 220 221 224 227 221 223 232 234 230 225 214 215 213 211 234 178 177 194 220 219 237 273 339 335 20 96 5 168 181 160 121 141 128 86 80 94 85 96 86 92 72 82 58 92 76 64 65 59 53 46 41 39 19 354 358 356 355 355 355 356 358 357 356 353 350 348 347 346 346 345 342 339 337 335 333 332 331 331 330
216 219 220 211 214 221 218 217 214 217 220 224 230 231 233 225 217 211 218 187 172 224 182 170 185 211 213 238 282 289 282 270 246 99 172 151 186 181 168 135 127 123 115 100 87 67 75 64 79 108 95 84 66 46 48 36 53 48 13 357 356 354 353 355 356 356 357 356 354 351 349 347 347 346 345 343 340 337 336 334 333 333 332 331 329
219 221 222 219 216 220 212 211 216 215 212 220 225 223 227 215 217 204 201 193 199 205 185 166 179 182 202 207 188 219 290 240 290 283 329 169 164 136 125 126 144 107 92 89 75 75 74 90 63 61 102 94 77 52 41 32 46 23 4 357 355 352 352 353 355 355 355 353 352 349 347 347 346 345 343 340 338 335 334 333 333 331 330 328 327
219 221 215 219 204 206 211 212 211 207 208 218 220 221 219 210 189 193 196 196 206 209 197 176 202 197 172 200 182 209 199 233 230 242 225 243 176 163 153 131 155 123 121 107 90 99 107 96 83 67 90 96 83 61 32 22 36 19 4 357 353 349 347 349 350 352 352 350 349 347 346 345 344 343 341 338 336 335 333 333 331 330 328 325 323
212 216 214 210 203 208 210 210 212 209 192 208 209 215 212 208 185 196 197 201 203 198 219 183 205 155 171 184 195 192 197 204 214 203 246 264 267 135 107 134 198 135 112 91 83 113 125 94 98 82 74 81 69 54 39 16 44 18 4 356 347 341 339 341 345 349 350 349 348 347 345 343 343 342 340 338 336 335 334 332 331 329 327 326 326
208 210 212 207 205 200 202 206 205 204 183 192 195 200 207 209 198 197 193 189 184 188 207 180 190 151 177 189 202 202 194 186 190 193 192 169 196 258 217 221 291 316 72 35 9 71 109 105 74 80 62 93 62 51 40 14 75 27 13 351 340 331 329 336 344 348 348 348 347 345 343 342 341 341 340 338 336 335 332 332 331 330 329 328 327
210 208 208 202 199 204 202 209 199 179 180 196 198 201 206 200 187 184 183 177 174 183 168 177 186 169 192 203 215 216 199 202 185 181 186 186 182 205 187 158 227 246 280 335 353 285 182 106 90 82 83 87 66 65 34 14 83 48 9 343 330 322 325 334 342 347 347 345 344 343 341 341 341 341 338 336 334 333 333 333 333 332 331 330 330
207 206 207 197 190 190 190 197 190 189 189 188 198 203 199 190 184 180 183 179 177 172 177 188 186 180 187 209 237 211 207 200 208 168 182 192 207 205 157 139 221 186 177 165 225 205 199 167 108 90 105 80 83 43 26 21 350 45 7 334 319 316 323 328 338 344 345 343 342 341 342 341 340 338 336 334 335 335 335 334 334 334 333 332 330
208 203 207 203 192 188 184 189 188 185 191 197 198 198 195 184 176 179 178 177 175 183 185 178 185 200 130 203 213 208 198 152 169 169 158 153 183 206 165 181 207 236 157 182 158 216 188 179 132 135 126 118 87 36 32 5 329 52 353 320 308 318 321 328 338 343 342 341 339 338 337 339 338 337 334 336 337 337 337 336 335 333 332 331 331
212 203 206 200 186 186 187 186 183 189 179 184 187 188 187 181 178 171 172 175 169 183 184 170 153 128 151 195 203 198 182 161 163 164 144 170 190 185 178 194 192 218 208 184 171 225 164 156 137 143 130 109 77 22 21 342 313 58 335 309 311 311 321 330 336 339 338 335 332 330 335 338 337 334 334 337 339 339 338 336 335 334 334 334 334
213 205 206 200 187 186 189 193 180 183 186 186 179 179 186 185 169 165 171 167 163 171 143 142 150 162 173 196 192 192 158 150 153 129 126 114 138 154 207 252 217 191 187 184 181 204 139 166 120 121 131 102 71 29 337 307 307 44 322 313 309 313 317 323 327 331 333 331 329 330 334 335 334 334 336 339 341 339 338 336 336 336 336 335 334
212 201 195 196 189 188 186 185 178 178 179 174 166 184 188 183 168 168 167 173 169 174 149 150 154 161 181 180 187 168 152 145 125 118 111 123 160 172 229 240 276 212 188 209 196 166 173 171 177 141 109 106 68 2 319 301 36 76 307 300 299 299 304 313 319 325 330 330 328 330 333 338 336 335 338 341 341 340 337 338 338 338 338 336 334
210 193 193 186 188 183 184 180 176 173 176 170 174 176 162 159 157 163 171 171 157 142 154 137 150 161 169 176 183 147 142 153 131 117 132 149 156 178 192 247 269 248 194 182 225 169 152 162 168 152 146 87 67 301 281 276 208 222 299 293 293 294 300 305 306 321 334 334 333 333 334 338 338 336 339 342 342 340 339 339 339 339 338 338 337
193 173 188 182 186 187 182 175 168 165 154 158 155 155 166 171 167 165 161 161 144 138 149 156 156 154 162 179 160 143 152 139 122 121 120 145 157 165 160 188 213 282 221 193 167 87 108 189 85 91 88 32 29 283 266 266 285 290 289 294 291 287 289 287 298 326 336 339 338 339 339 340 338 337 340 343 342 340 340 340 340 339 338 337 336
192 183 186 187 183 182 179 174 169 158 153 151 160 165 175 173 162 153 163 145 135 141 137 133 138 157 167 165 154 146 144 130 131 135 140 142 137 158 170 178 160 22 341 224 205 241 65 68 328 19 74 354 293 277 285 291 284 256 294 295 290 289 291 307 307 330 341 341 344 342 341 339 338 339 343 344 341 340 341 340 341 341 340 339 339
187 190 192 187 181 177 170 165 159 158 158 164 171 169 169 152 143 145 140 149 148 146 144 147 151 160 162 153 142 134 136 132 130 131 138 132 140 156 172 176 147 135 188 181 219 265 296 133 150 221 41 27 288 288 293 307 307 306 300 295 296 299 305 310 315 324 341 344 342 343 344 341 339 340 344 343 342 342 341 341 342 341 340 340 340
189 192 189 184 178 175 174 171 172 172 175 177 164 156 155 153 149 144 157 164 158 151 152 155 163 162 155 144 136 135 133 122 129 135 133 142 162 159 175 188 157 154 132 154 202 235 262 297 285 34 327 51 285 297 315 311 308 309 302 295 292 304 312 315 320 320 341 344 339 344 348 345 343 344 345 344 343 342 342 343 342 342 342 342 339
191 190 187 182 180 180 182 180 176 179 174 170 163 157 159 162 161 165 173 173 168 160 163 165 164 155 147 142 141 136 127 125 131 130 139 150 160 171 168 169 161 138 138 177 178 228 266 281 303 281 272 310 285 300 311 305 307 305 296 298 311 316 311 314 316 321 338 339 340 344 346 345 344 342 341 341 342 342 342 343 343 342 343 342 339
187 193 188 183 182 182 181 182 182 175 162 170 169 168 166 166 169 170 170 172 169 164 166 163 160 159 153 143 145 141 137 136 142 147 153 156 172 169 164 164 154 148 158 163 206 229 288 269 277 276 295 299 280 296 282 329 315 297 290 297 310 306 304 316 328 329 335 338 342 347 347 345 343 337 339 341 342 342 343 343 343 344 346 344 340
190 182 187 180 179 177 184 186 180 177 175 175 174 166 160 166 169 165 163 166 163 163 162 159 157 156 155 152 145 145 146 145 156 163 162 173 177 171 169 166 164 155 154 177 186 211 235 253 275 270 268 261 260 262 71 357 310 298 300 323 317 305 312 318 335 341 339 343 344 346 347 344 338 332 334 339 341 341 342 342 343 345 346 345 341
184 182 177 177 179 185 183 182 190 185 170 172 173 161 153 153 153 152 154 154 151 148 144 146 153 151 150 144 147 151 159 164 167 164 164 175 173 173 170 165 156 157 166 172 189 209 233 251 260 282 270 272 289 265 96 348 322 320 329 329 300 273 311 317 329 343 344 346 348 344 342 340 334 331 333 337 338 341 341 340 344 346 346 344 344
176 176 177 174 185 180 181 176 177 177 171 159 158 158 151 151 148 146 144 137 133 130 132 136 133 134 137 145 150 159 165 169 166 167 165 170 174 173 172 160 154 162 171 183 191 211 230 247 258 254 262 267 259 279 357 343 316 329 354 329 306 308 331 336 327 340 353 353 358 350 336 327 326 328 333 334 336 339 340 341 343 346 347 347 346
180 180 177 181 182 181 180 180 175 162 170 163 153 152 150 146 144 146 146 139 130 122 122 129 135 138 139 142 155 159 161 165 164 165 168 168 168 170 164 160 161 163 181 181 196 215 228 235 256 265 280 276 273 340 320 347 341 357 25 353 330 329 329 325 310 321 333 349 354 348 333 324 325 329 333 336 336 340 340 341 342 346 347 347 348
172 177 166 162 155 162 152 160 155 150 163 174 162 156 149 144 145 144 141 137 140 142 141 139 139 139 140 140 145 150 126 113 128 143 159 162 169 166 160 164 165 164 180 183 198 217 226 239 260 265 274 277 298 337 341 359 11 346 342 344 313 312 315 317 318 301 342 357 346 336 324 312 322 324 329 332 334 338 340 342 341 346 348 348 349
156 152 152 153 164 166 159 153 156 160 167 175 183 169 160 155 154 150 147 149 151 152 151 147 145 147 143 134 103 108 116 119 113 115 122 95 13 111 159 162 169 165 170 180 204 203 205 235 242 252 271 276 319 350 341 352 358 345 340 341 328 327 326 314 291 160 23 12 347 338 327 325 332 323 335 336 333 339 338 334 341 346 349 350 351
146 152 147 156 166 163 164 164 167 174 178 175 177 171 164 158 154 154 154 154 155 156 159 159 157 155 145 126 122 124 123 124 136 147 150 153 128 83 69 61 50 138 165 175 194 179 208 243 242 259 260 281 298 360 331 358 352 360 342 335 328 334 347 345 330 323 76 11 343 327 322 336 339 335 336 337 337 336 335 336 344 351 353 353 354
159 151 166 173 167 164 161 165 174 182 188 173 174 168 164 163 162 158 156 156 159 161 161 160 157 154 149 140 140 148 160 161 155 156 159 159 146 133 118 111 91 37 174 182 178 186 204 223 244 244 248 265 318 337 344 355 344 338 335 333 327 335 331 321 305 304 321 356 332 324 320 333 335 338 327 334 338 332 329 336 345 353 355 356 357
149 171 181 164 169 165 165 170 177 174 179 168 171 168 169 167 163 158 159 156 157 163 165 162 158 158 154 152 149 163 164 157 159 166 164 163 156 149 142 133 159 188 206 213 230 235 265 249 243 262 255 303 310 317 12 347 336 319 323 321 326 323 314 300 295 304 315 330 315 322 318 326 349 343 325 332 336 326 326 332 347 354 356 357 357
165 168 159 170 161 168 171 169 167 169 169 172 168 170 171 169 165 161 160 159 159 162 163 162 162 162 161 160 155 158 157 164 176 170 166 162 161 157 162 182 189 195 207 212 216 237 260 247 247 247 282 330 292 317 350 351 322 308 310 301 311 308 297 286 295 294 296 306 328 328 308 322 356 337 324 324 333 321 319 330 349 352 355 357 358
180 181 175 176 177 173 172 167 168 177 176 172 165 167 168 164 165 155 156 156 155 155 155 158 163 160 163 157 154 156 158 172 180 170 163 166 165 167 175 192 195 187 193 194 197 195 200 221 238 258 279 323 337 348 345 332 299 286 284 284 292 291 281 278 277 273 289 316 345 330 301 319 342 332 324 322 325 318 316 327 352 353 355 358 357
150 139 146 163 172 180 178 168 167 179 166 176 179 176 164 161 158 158 160 159 158 152 154 156 156 157 157 154 154 157 162 173 171 170 167 162 157 152 161 185 212 205 208 207 179 240 218 237 293 309 326 314 305 292 283 282 288 282 288 295 283 259 281 298 288 297 297 339 333 322 314 312 330 330 320 318 317 312 316 315 350 349 355 357 356
172 183 186 184 180 178 180 183 181 182 165 181 184 180 170 166 161 166 163 161 155 152 153 147 146 145 151 161 158 154 162 166 165 172 171 161 142 150 170 189 203 226 228 198 185 212 229 236 256 270 278 281 279 276 272 269 262 266 284 280 258 16 314 294 293 310 315 333 313 29 326 308 334 333 316 319 313 304 307 333 340 341 355 357 355
191 196 189 185 184 188 189 194 192 187 186 182 183 176 176 173 175 166 168 162 151 146 132 129 129 137 145 152 150 152 161 162 166 175 176 161 151 168 181 191 200 213 225 203 175 202 222 241 267 277 279 277 280 276 268 256 255 255 236 248 297 337 281 289 296 316 309 296 311 26 322 306 328 329 320 312 290 287 308 340 340 334 357 357 350
205 155 164 173 195 205 207 207 201 195 182 182 185 177 178 174 176 167 166 154 153 156 144 144 140 140 140 154 161 158 161 161 170 177 181 173 157 180 185 188 203 211 211 183 185 196 206 233 285 270 272 252 244 244 248 248 251 254 253 247 258 267 284 291 303 315 320 300 66 21 324 314 333 330 335 325 311 296 302 2 331 322 351 355 346